Location: Curupao
(10.4996°N, 66.6442°W)
Time: 01:24:12
(UTC+00:00)

BlueWalker 3 - Pass Details

Date: 23 May 2024
Orbit: 480 x 494 km, 53.2° (Epoch: 12 June)

Event Time Altitude Azimuth Distance (km) Brightness Sun altitude
Exits shadow 08:59:36 15° 191° (S) 1,360 3.8 -15.3°
Maximum altitude 09:02:22 42° 124° (SE) 690 2.8 -14.7°
Drops below altitude 10° 09:05:53 10° 52° (NE) 1,644 5.9 -13.9°
Sets 09:08:07 0° 45° (NE) 2,522 6.9 -13.4°
